Погода в Федоровском

Россия / Костромская область     57°25′00″N   40°33′29″E
темп.,
°C
ветер,
м/с
пор.,
м/с
влажн.,
%
обл.,
%
осадки,
мм/ч
давл.,
гПа
погр.,
м
5 марта, пт
пт500:00−12зсз33930 0.0 100121
03:00−13зсз33940 0.0 100229
06:00−13з34953 0.0 100334
09:00−10з369546 0.1 1004236
12:00−6зсз469395 0.1 1005482
15:00−5сз578598 0.4 1007809
18:00−10сз5108767 0.0 1009225
21:00−14зсз348933 0.0 101148
6 марта, сб
сб600:00−15зюз34886 0.0 101346
03:00−13зюз489428 0.0 1014194
06:00−15зсз369795 0.1 1014122
09:00−14сз359365 0.1 1015180
12:00−10зсз34872 0.0 1015398
15:00−8зсз468430 0.0 1014686
18:00−11зюз339298 0.0 101324
21:00−14юз349180 0.0 101352
7 марта, вс
вс700:00−14ююз489123 0.0 1010136
03:00−12ююз6129129 0.0 1006237
06:00−9ююз71492100 0.1 1002546
09:00−8ююз81493100 0.8 997790
12:00−5ююз91393100 0.8 9931017
15:00−4ю81293100 2.2 990929
18:00−4юз61095100 1.1 989487
21:00−8зсз81486100 3.4 991871
8 марта, пн
пн800:00−11з61284100 0.1 991304
03:00−15зюз458589 0.1 99164
06:00−16зсз34890 0.0 99136
09:00−13зсз47946 0.0 992212
12:00−9зсз579285 0.1 994500
15:00−6ссз699393 0.8 996738
18:00−9ссз61093100 0.5 999625
21:00−11ссз5109399 0.6 1003410
9 марта, вт
вт900:00−14сз5109493 0.1 1006296
03:00−17сз489688 0.1 1008173
06:00−16ссз489599 0.1 1010343
09:00−16ссз5793100 0.2 1012421
12:00−16сз469299 0.0 1013403
15:00−14сз4690100 0.1 1014523
18:00−18зсз3596100 0.0 101594
21:00−21сз3499100 0.1 101751